GW5274 Weather Reports


time (UTC)temp
C
wind
direction
speed
KPH
gust
KPH
rain 1hr
cm
rain 24hr
cm
rain mn
cm
humidity
%
barometer
mb
20260504231832 20 153 4.8 6.4 0.00 0.00 0.00 47 1013.1
20260504231329 20 185 1.6 6.4 0.00 0.00 0.00 46 1013.3
20260504230825 20 310 3.2 4.8 0.00 0.00 0.00 48 1013.3
20260504230323 19 44 0.0 1.6 0.00 0.00 0.00 47 1013.0
20260504225821 18 141 1.6 3.2 0.00 0.00 0.00 48 1013.2
20260504225317 18 241 1.6 11.3 0.00 0.00 0.00 50 1013.2
20260504224815 20 183 8.0 11.3 0.00 0.00 0.00 48 1013.2
20260504224312 20 129 0.0 1.6 0.00 0.00 0.00 51 1013.2
20260504223808 20 173 1.6 1.6 0.00 0.00 0.00 52 1013.2
20260504223304 19 202 0.0 1.6 0.00 0.00 0.00 57 1013.3
20260504222801 18 256 0.0 1.6 0.00 0.00 0.00 54 1013.4
20260504222258 19 303 1.6 3.2 0.00 0.00 0.00 52 1013.1
20260504221755 18 232 0.0 1.6 0.00 0.00 0.00 54 1013.3
20260504221252 17 221 0.0 4.8 0.00 0.00 0.00 57 1013.4
20260504220749 17 90 4.8 6.4 0.00 0.00 0.00 67 1013.4
20260504220246 16 128 0.0 3.2 0.00 0.00 0.00 68 1013.2
20260504215743 17 137 1.6 3.2 0.00 0.00 0.00 68 1013.3
20260504215240 17 184 3.2 4.8 0.00 0.00 0.00 62 1013.5
20260504214736 18 270 12.9 16.1 0.00 0.00 0.00 56 1013.9
20260504214232 19 270 4.8 12.9 0.00 0.00 0.00 47 1013.3
20260504213729 19 257 8.0 16.1 0.00 0.00 0.00 45 1013.1
20260504213225 19 300 4.8 9.7 0.00 0.00 0.00 45 1012.9
20260504212723 20 198 11.3 14.5 0.00 0.00 0.00 45 1012.8
20260504212219 20 328 6.4 6.4 0.00 0.00 0.00 46 1012.5
20260504211717 20 230 4.8 12.9 0.00 0.00 0.00 45 1012.9
20260504211213 20 277 1.6 9.7 0.00 0.00 0.00 43 1012.8
20260504210710 19 282 3.2 4.8 0.00 0.00 0.00 44 1013.0
20260504210207 19 288 1.6 4.8 0.00 0.00 0.00 45 1013.0
20260504205704 19 285 6.4 11.3 0.00 0.00 0.00 45 1012.9
20260504205201 19 280 4.8 6.4 0.00 0.00 0.00 48 1012.9
20260504204700 20 241 8.0 12.9 0.00 0.00 0.00 44 1012.9
20260504204159 20 232 6.4 14.5 0.00 0.00 0.00 45 1012.9
20260504203657 20 266 1.6 12.9 0.00 0.00 0.00 44 1012.8
20260504203155 19 251 3.2 6.4 0.00 0.00 0.00 46 1012.9
20260504202654 19 272 3.2 12.9 0.00 0.00 0.00 43 1012.8
20260504202152 20 79 8.0 11.3 0.00 0.00 0.00 43 1013.0
20260504201648 20 85 3.2 12.9 0.00 0.00 0.00 40 1013.0
20260504201146 20 130 6.4 14.5 0.00 0.00 0.00 42 1013.1
20260504200643 20 211 9.7 12.9 0.00 0.00 0.00 40 1012.9
20260504200140 20 296 1.6 12.9 0.00 0.00 0.00 42 1012.9
20260504195635 20 97 3.2 11.3 0.00 0.00 0.00 40 1012.7
20260504195132 20 213 14.5 20.9 0.00 0.00 0.00 40 1012.8
20260504194629 20 230 6.4 24.1 0.00 0.00 0.00 40 1012.7
20260504194125 21 288 4.8 14.5 0.00 0.00 0.00 40 1012.4
20260504193621 21 282 9.7 22.5 0.00 0.00 0.00 37 1012.5
20260504193120 21 236 11.3 14.5 0.00 0.00 0.00 40 1012.8
20260504192617 20 252 6.4 11.3 0.00 0.00 0.00 43 1012.9
20260504192115 20 275 9.7 12.9 0.00 0.00 0.00 40 1013.3
20260504191614 21 324 8.0 14.5 0.00 0.00 0.00 42 1013.2
20260504191109 21 243 1.6 6.4 0.00 0.00 0.00 40 1013.1
20260504190606 21 248 6.4 14.5 0.00 0.00 0.00 42 1013.2
20260504185559 20 237 6.4 20.9 0.00 0.00 0.00 41 1013.2
20260504185055 20 309 11.3 20.9 0.00 0.00 0.00 44 1013.4
20260504184551 20 247 9.7 20.9 0.00 0.00 0.00 42 1013.9
20260504184046 19 293 12.9 14.5 0.00 0.00 0.00 43 1014.0
20260504183543 20 329 3.2 17.7 0.00 0.00 0.00 46 1013.8
20260504183042 19 137 3.2 3.2 0.00 0.00 0.00 44 1013.9
20260504182538 19 334 6.4 12.9 0.00 0.00 0.00 48 1013.8
20260504182036 18 269 4.8 6.4 0.00 0.00 0.00 47 1014.0
20260504181533 18 294 12.9 14.5 0.00 0.00 0.00 47 1014.1
20260504181031 18 202 12.9 16.1 0.00 0.00 0.00 46 1014.3
20260504180529 18 286 11.3 16.1 0.00 0.00 0.00 49 1014.7
20260504180028 17 331 11.3 14.5 0.00 0.00 0.00 50 1014.4
20260504175525 17 263 3.2 17.7 0.00 0.00 0.00 53 1014.4
20260504175022 18 231 6.4 16.1 0.00 0.00 0.00 50 1014.6
20260504174520 17 289 3.2 9.7 0.00 0.00 0.00 54 1014.5
20260504174016 17 296 11.3 14.5 0.00 0.00 0.00 53 1014.6
20260504173513 18 222 16.1 22.5 0.00 0.00 0.00 52 1014.7
20260504173011 17 137 1.6 12.9 0.00 0.00 0.00 49 1014.9
20260504172506 18 243 8.0 12.9 0.00 0.00 0.00 51 1014.9
20260504172003 18 112 0.0 3.2 0.00 0.00 0.00 57 1014.8
20260504171500 18 228 1.6 9.7 0.00 0.00 0.00 49 1014.8
20260504170957 17 224 3.2 11.3 0.00 0.00 0.00 53 1014.7
20260504170453 16 209 9.7 14.5 0.00 0.00 0.00 54 1015.1
20260504160413 17 248 1.6 4.8 0.00 0.00 0.00 49 1015.5
20260504150837 16 246 6.4 14.5 0.00 0.00 0.00 48 1016.0
20260504150333 16 207 3.2 20.9 0.00 0.00 0.00 50 1016.1
20260504141303 15 185 11.3 16.1 0.00 0.00 0.00 46 1016.1
20260504140800 15 228 8.0 11.3 0.00 0.00 0.00 47 1015.8
20260504140256 15 248 4.8 16.1 0.00 0.00 0.00 48 1015.9
20260504130725 12 109 3.2 3.2 0.00 0.00 0.00 53 1015.8
20260504130220 11 131 0.0 1.6 0.00 0.00 0.00 59 1016.0
20260504120144 6 162 1.6 3.2 0.00 0.00 0.00 83 1016.3
20260504110612 5 188 3.2 3.2 0.00 0.00 0.00 87 1016.3
20260504110108 5 128 1.6 3.2 0.00 0.00 0.00 89 1016.6
20260504100533 5 141 0.0 0.0 0.00 0.00 0.00 87 1016.7
20260504081927 5 210 1.6 4.8 0.00 0.00 0.00 87 1016.7
20260504081424 6 148 1.6 3.2 0.00 0.00 0.00 87 1016.5
20260504080920 6 122 1.6 3.2 0.00 0.00 0.00 84 1016.7
20260504080417 6 122 1.6 3.2 0.00 0.00 0.00 84 1016.7
20260504070344 8 246 1.6 3.2 0.00 0.00 0.00 60 1017.4
20260504050732 5 141 1.6 1.6 0.00 0.00 0.00 69 1017.5
20260504050229 5 142 1.6 3.2 0.00 0.00 0.00 68 1017.4
20260504045726 5 127 1.6 1.6 0.00 0.00 0.00 69 1017.5
20260504045221 6 127 0.0 3.2 0.00 0.00 0.00 65 1017.4
20260504044719 6 155 1.6 3.2 0.00 0.00 0.00 66 1017.3
20260504044216 6 164 1.6 1.6 0.00 0.00 0.00 66 1017.2
20260504043713 6 133 0.0 3.2 0.00 0.00 0.00 63 1017.3
20260504043210 6 211 1.6 1.6 0.00 0.00 0.00 65 1017.3
20260504042708 6 216 1.6 3.2 0.00 0.00 0.00 64 1017.4
20260504042204 6 130 0.0 1.6 0.00 0.00 0.00 66 1017.4
20260504041700 6 144 1.6 3.2 0.00 0.00 0.00 68 1017.4
20260504041155 6 144 0.0 1.6 0.00 0.00 0.00 68 1017.2
20260504040653 6 144 1.6 1.6 0.00 0.00 0.00 67 1017.5
20260504040150 6 144 1.6 3.2 0.00 0.00 0.00 68 1017.3
20260504035646 5 144 0.0 0.0 0.00 0.00 0.00 67 1017.4
20260504035143 6 144 0.0 0.0 0.00 0.00 0.00 71 1017.3
20260504034641 6 144 0.0 1.6 0.00 0.00 0.00 70 1017.3
20260504034138 6 156 1.6 3.2 0.00 0.00 0.00 65 1017.4
20260504033635 6 126 1.6 1.6 0.00 0.00 0.00 63 1017.2
20260504033133 6 126 0.0 1.6 0.00 0.00 0.00 66 1017.3
20260504032629 6 126 1.6 1.6 0.00 0.00 0.00 65 1017.2
20260504032126 6 126 0.0 1.6 0.00 0.00 0.00 62 1017.3
20260504031624 6 126 3.2 3.2 0.00 0.00 0.00 61 1017.3
20260504031120 6 126 1.6 1.6 0.00 0.00 0.00 60 1017.5
20260504030617 7 126 1.6 3.2 0.00 0.00 0.00 59 1017.5
20260504030113 7 116 3.2 3.2 0.00 0.00 0.00 56 1017.3
20260504025610 7 145 1.6 1.6 0.00 0.00 0.00 57 1017.3
20260504025107 7 168 1.6 1.6 0.00 0.00 0.00 58 1017.3
20260504024604 7 168 1.6 1.6 0.00 0.00 0.00 58 1017.5
20260504024101 7 168 0.0 1.6 0.00 0.00 0.00 56 1017.5
20260504023557 7 172 1.6 1.6 0.00 0.00 0.00 56 1017.5
20260504023053 7 179 0.0 1.6 0.00 0.00 0.00 54 1017.4
20260504022550 7 179 1.6 1.6 0.00 0.00 0.00 56 1017.5
20260504022046 7 217 1.6 1.6 0.00 0.00 0.00 57 1017.5
20260504021543 7 217 0.0 1.6 0.00 0.00 0.00 56 1017.4
20260504021040 7 217 0.0 1.6 0.00 0.00 0.00 54 1017.5
20260504020537 7 217 1.6 1.6 0.00 0.00 0.00 58 1017.6
20260504020034 7 217 0.0 1.6 0.00 0.00 0.00 56 1017.5
20260504015530 7 217 0.0 1.6 0.00 0.00 0.00 58 1017.5
20260504015026 8 217 0.0 0.0 0.00 0.00 0.00 56 1017.2
20260504014522 7 217 0.0 1.6 0.00 0.00 0.00 54 1017.3
20260504014020 8 217 0.0 0.0 0.00 0.00 0.00 53 1017.3
20260504013518 8 217 0.0 0.0 0.00 0.00 0.00 52 1017.4
20260504013014 8 217 0.0 0.0 0.00 0.00 0.00 51 1017.4
20260504012512 8 217 0.0 0.0 0.00 0.00 0.00 51 1017.3
20260504012010 8 217 0.0 1.6 0.00 0.00 0.00 50 1017.4
20260504011506 8 217 0.0 0.0 0.00 0.00 0.00 54 1017.0
20260504011001 8 217 0.0 1.6 0.00 0.00 0.00 53 1017.0
20260504010458 8 217 0.0 0.0 0.00 0.00 0.00 49 1017.0
20260504005953 8 217 0.0 1.6 0.00 0.00 0.00 52 1016.9
20260504005451 8 217 1.6 1.6 0.00 0.00 0.00 55 1017.0
20260504004948 8 217 0.0 0.0 0.00 0.00 0.00 51 1017.0
20260504004446 8 222 0.0 0.0 0.00 0.00 0.00 55 1016.9
20260504003943 9 222 0.0 1.6 0.00 0.00 0.00 54 1016.7
20260504003439 9 130 3.2 4.8 0.00 0.00 0.00 41 1016.7
20260504002935 9 117 0.0 1.6 0.00 0.00 0.00 42 1016.6
20260504002433 10 116 0.0 1.6 0.00 0.00 0.00 41 1016.7
20260504001930 10 91 1.6 3.2 0.00 0.00 0.00 39 1016.7
20260504001427 10 294 0.0 3.2 0.00 0.00 0.00 39 1016.6
20260504000924 10 186 0.0 0.0 0.00 0.00 0.00 41 1016.7
20260504000423 10 187 0.0 1.6 0.00 0.00 0.00 38 1016.6
20260503235918 10 263 1.6 4.8 0.00 0.00 0.00 38 1016.6
20260503235416 11 291 0.0 1.6 0.00 0.00 0.00 35 1016.6
20260503234913 11 314 1.6 4.8 0.00 0.00 0.00 34 1017.0
20260503234411 10 45 4.8 6.4 0.00 0.00 0.00 36 1016.9
20260503233909 10 82 1.6 3.2 0.00 0.00 0.00 46 1016.9
20260503233405 11 257 1.6 1.6 0.00 0.00 0.00 38 1016.6
20260503232901 11 302 3.2 9.7 0.00 0.00 0.00 35 1016.9
20260503232359 12 45 6.4 12.9 0.00 0.00 0.00 36 1016.7